Weather History for KVTI - December, 2012

Change the Weather History Date:

Sunday, December 30, 2012

  Actual Average Record
Temperature  
Mean Temperature 16 °F -  
Max Temperature 32 °F 28 °F 60 °F (2004)
Min Temperature -1 °F 10 °F -15 °F (1963)
Degree Days  
Heating Degree Days 50    
Moisture  
Dew Point 11 °F    
Average Humidity 78    
Maximum Humidity 89    
Minimum Humidity 68    
Precipitation  
Precipitation 0.00 in - - ()
Sea Level Pressure  
Sea Level Pressure 30.16 in    
Wind  
Wind Speed 5 mph (South)    
Max Wind Speed 16 mph    
Max Gust Speed 22 mph    
Visibility 8 miles    
Events      
Averages and records for this station are not official NWS values.
T = Trace of Precipitation, MM = Missing Value Source: NWS Daily Summary

Daily Weather History Graph

Daily Weather History Graph

Search for Another Location

Airport or City:

Trip Planner

Search our weather history database for the weather conditions in past years. The results will help you decide how hot, cold, wet, or windy it might be!

Date:

Astronomy

Dec. 30, 2012 Rise Set
Actual Time 7:36 AM CST 4:45 PM CST
Civil Twilight 7:04 AM CST 5:17 PM CST
Nautical Twilight 6:29 AM CST 5:52 PM CST
Astronomical Twilight 5:55 AM CST 6:26 PM CST
Moon 7:19 PM CST (12/30) 8:43 AM CST (12/30)
Length of Visible Light 10h 12m
Length of Day
9h 08m
Waning Gibbous, 95% of the Moon is Illuminated
Dec 30
Waning Gibbous
Jan 4
Last Quarter
Jan 11
New
Jan 18
First Quarter
Jan 26
Full

Hourly Weather History & Observations

Time (CST) Temp. Windchill Dew Point Humidity Pressure Visibility Wind Dir Wind Speed Gust Speed Precip Events Conditions
12:15 AM 5.0 °F - 2.1 °F 88% 30.24 in 5.0 mi Calm Calm - N/A   Clear
12:35 AM 5.0 °F - 2.1 °F 88% 30.24 in 5.0 mi Calm Calm - N/A   Clear
12:55 AM 4.6 °F -2.5 °F 1.9 °F 89% 30.24 in 5.0 mi West 3.5 mph - N/A   Clear
1:15 AM 4.6 °F -2.5 °F 1.0 °F 85% 30.24 in 5.0 mi WNW 3.5 mph - N/A   Clear
1:35 AM 5.0 °F - 1.8 °F 86% 30.25 in 7.0 mi Calm Calm - N/A   Clear
1:55 AM 5.0 °F - 1.4 °F 85% 30.25 in 7.0 mi Calm Calm - N/A   Clear
2:15 AM 2.3 °F - -1.3 °F 85% 30.26 in 5.0 mi Calm Calm - N/A   Clear
2:35 AM 0.1 °F - -3.3 °F 85% 30.27 in 5.0 mi Calm Calm - N/A   Clear
2:55 AM 3.7 °F - 0.5 °F 86% 30.28 in 7.0 mi Calm Calm - N/A   Clear
3:15 AM 3.0 °F - -0.4 °F 86% 30.28 in 7.0 mi Calm Calm - N/A   Clear
3:35 AM 0.1 °F - -3.8 °F 83% 30.28 in 5.0 mi Calm Calm - N/A   Clear
3:55 AM 2.7 °F - -0.9 °F 85% 30.27 in 5.0 mi Calm Calm - N/A   Clear
4:15 AM 0.1 °F - -4.0 °F 83% 30.28 in 5.0 mi Calm Calm - N/A   Clear
4:35 AM 0.5 °F - -3.1 °F 85% 30.27 in 7.0 mi Calm Calm - N/A   Clear
4:55 AM 1.2 °F - -2.6 °F 84% 30.26 in 7.0 mi Calm Calm - N/A   Clear
5:15 AM -0.0 °F - -4.2 °F 83% 30.26 in 7.0 mi Calm Calm - N/A   Clear
5:35 AM -0.4 °F - -4.4 °F 83% 30.27 in 7.0 mi Calm Calm - N/A   Clear
5:55 AM -1.5 °F - -5.4 °F 83% 30.27 in 7.0 mi Calm Calm - N/A   Clear
6:15 AM 0.5 °F - -3.3 °F 84% 30.27 in 5.0 mi Calm Calm - N/A   Clear
6:55 AM 0.1 °F - -3.6 °F 84% 30.29 in 7.0 mi Calm Calm - N/A   Clear
7:15 AM -0.8 °F -8.7 °F -4.9 °F 83% 30.29 in 7.0 mi SE 3.5 mph - N/A   Clear
7:35 AM -1.5 °F - -5.4 °F 83% 30.28 in 7.0 mi Calm Calm - N/A   Clear
7:55 AM 1.2 °F -6.4 °F -2.6 °F 84% 30.28 in 4.0 mi SE 3.5 mph - N/A   Clear
8:15 AM 0.5 °F -7.3 °F -4.0 °F 81% 30.28 in 4.0 mi SSE 3.5 mph - N/A   Clear
8:35 AM 1.4 °F -6.2 °F -3.3 °F 81% 30.28 in 5.0 mi SSE 3.5 mph - N/A   Clear
8:55 AM 5.0 °F - 0.9 °F 83% 30.28 in 4.0 mi Calm Calm - N/A   Clear
9:15 AM 7.7 °F - 3.2 °F 82% 30.28 in 4.0 mi Calm Calm - N/A   Haze
9:35 AM 7.7 °F 1.0 °F 3.2 °F 82% 30.29 in 4.0 mi South 3.5 mph - N/A   Haze
9:55 AM 10.2 °F 0.6 °F 5.5 °F 81% 30.28 in 5.0 mi SSE 5.8 mph - N/A   Haze
10:15 AM 12.7 °F 3.6 °F 8.2 °F 82% 30.28 in 4.0 mi SSE 5.8 mph - N/A   Haze
10:35 AM 12.7 °F 3.6 °F 7.7 °F 80% 30.28 in 5.0 mi South 5.8 mph - N/A   Haze
10:55 AM 15.3 °F 6.6 °F 9.5 °F 78% 30.28 in 5.0 mi SSE 5.8 mph - N/A   Haze
11:15 AM 15.8 °F 7.2 °F 9.5 °F 76% 30.26 in 5.0 mi SSE 5.8 mph - N/A   Haze
11:35 AM 16.5 °F 6.0 °F 10.4 °F 77% 30.25 in 5.0 mi SSE 8.1 mph - N/A   Haze
11:55 AM 17.6 °F 7.3 °F 11.8 °F 78% 30.23 in 7.0 mi SSE 8.1 mph - N/A   Clear
12:15 PM 17.6 °F 9.3 °F 12.0 °F 79% 30.20 in 7.0 mi SSE 5.8 mph - N/A   Clear
12:35 PM 18.1 °F 8.9 °F 12.0 °F 77% 30.19 in 7.0 mi South 6.9 mph - N/A   Clear
12:55 PM 19.2 °F 10.2 °F 12.7 °F 76% 30.18 in 7.0 mi SSE 6.9 mph - N/A   Clear
1:15 PM 20.7 °F 11.0 °F 13.6 °F 74% 30.16 in 7.0 mi South 8.1 mph - N/A   Clear
1:35 PM 21.6 °F 12.1 °F 14.0 °F 73% 30.14 in 7.0 mi South 8.1 mph - N/A   Clear
1:55 PM 22.6 °F 14.3 °F 15.4 °F 74% 30.13 in 10.0 mi South 6.9 mph - N/A   Clear
2:15 PM 23.7 °F 14.0 °F 16.5 °F 74% 30.13 in 10.0 mi South 9.2 mph - N/A   Clear
2:35 PM 25.2 °F 15.1 °F 17.8 °F 74% 30.12 in 10.0 mi South 10.4 mph - N/A   Clear
2:55 PM 27.5 °F 17.4 °F 20.3 °F 74% 30.11 in 10.0 mi SSE 11.5 mph - N/A   Clear
3:15 PM 27.5 °F 16.8 °F 20.3 °F 74% 30.10 in 10.0 mi South 12.7 mph 17.3 mph N/A   Clear
3:35 PM 27.5 °F 16.8 °F 20.8 °F 76% 30.09 in 10.0 mi South 12.7 mph - N/A   Clear
3:55 PM 27.5 °F 15.9 °F 20.8 °F 76% 30.08 in 10.0 mi SSE 15.0 mph - N/A   Clear
4:15 PM 27.5 °F 16.8 °F 20.8 °F 76% 30.08 in 10.0 mi SSE 12.7 mph - N/A   Clear
4:35 PM 27.5 °F 15.9 °F 20.8 °F 76% 30.06 in 10.0 mi SSE 15.0 mph - N/A   Clear
4:55 PM 27.5 °F 15.4 °F 20.5 °F 75% 30.04 in 10.0 mi South 16.1 mph 20.7 mph N/A   Clear
5:15 PM 27.5 °F 15.9 °F 20.3 °F 74% 30.04 in 10.0 mi South 15.0 mph - N/A   Clear
5:35 PM 27.5 °F 16.3 °F 20.3 °F 74% 30.04 in 10.0 mi South 13.8 mph 17.3 mph N/A   Clear
5:55 PM 27.5 °F 16.8 °F 20.1 °F 74% 30.05 in 10.0 mi South 12.7 mph 20.7 mph N/A   Clear
6:15 PM 30.2 °F 20.2 °F 21.9 °F 71% 30.04 in 10.0 mi South 12.7 mph 18.4 mph N/A   Clear
6:35 PM 31.5 °F 20.5 °F 22.3 °F 69% 30.04 in 10.0 mi South 16.1 mph 19.6 mph N/A   Clear
6:55 PM 32.4 °F 22.1 °F 23.2 °F 69% 30.03 in 10.0 mi South 15.0 mph - N/A   Clear
7:15 PM 32.4 °F 22.1 °F 23.5 °F 70% 30.03 in 10.0 mi South 15.0 mph 19.6 mph N/A   Clear
7:35 PM 32.4 °F 22.5 °F 23.7 °F 70% 30.02 in 10.0 mi South 13.8 mph - N/A   Clear
7:55 PM 30.4 °F 20.0 °F 22.1 °F 71% 30.01 in 10.0 mi South 13.8 mph - N/A   Clear
8:15 PM 32.4 °F 21.7 °F 23.9 °F 71% 30.00 in 10.0 mi South 16.1 mph - N/A   Clear
8:35 PM 32.4 °F 22.1 °F 23.9 °F 71% 30.00 in 10.0 mi South 15.0 mph 20.7 mph N/A   Clear
8:55 PM 32.4 °F 22.5 °F 24.1 °F 72% 29.99 in 10.0 mi South 13.8 mph - N/A   Clear
9:15 PM 32.4 °F 22.1 °F 23.7 °F 70% 29.99 in 10.0 mi South 15.0 mph 21.9 mph N/A   Clear
9:35 PM 32.4 °F 22.1 °F 23.7 °F 70% 29.98 in 10.0 mi SSW 15.0 mph - N/A   Clear
9:55 PM 32.4 °F 24.0 °F 23.5 °F 70% 30.00 in 10.0 mi SW 10.4 mph - N/A   Clear
10:15 PM 32.4 °F 24.0 °F 23.0 °F 68% 30.00 in 10.0 mi SW 10.4 mph - N/A   Clear
10:35 PM 32.4 °F 24.0 °F 23.0 °F 68% 29.99 in 10.0 mi SW 10.4 mph 18.4 mph N/A   Clear
10:55 PM 32.4 °F 23.5 °F 23.4 °F 69% 30.00 in 10.0 mi SW 11.5 mph - N/A   Clear
11:15 PM 32.4 °F 24.6 °F 22.8 °F 68% 30.01 in 10.0 mi WSW 9.2 mph - N/A   Clear
11:35 PM 32.4 °F 23.5 °F 23.0 °F 68% 30.01 in 10.0 mi WSW 11.5 mph 16.1 mph N/A   Clear
11:55 PM 32.4 °F 24.0 °F 23.0 °F 68% 30.01 in 10.0 mi West 10.4 mph - N/A   Clear